Wind_Speed
17 19 20 19 19 19 20 17 14 14 14 13 12 12 12 13 12 9 8 7 7 7 6 5 4 5 3 1 2 2 4 4 5 4 5 5 5 5 6 5 5 5 5 5 5 7 8 9 9
19 19 19 19 21 22 24 18 15 16 17 17 17 16 15 16 15 15 11 11 10 8 8 8 7 7 6 6 5 3 2 1 0 1 2 3 4 5 6 7 8 8 9 9 10 10 10 10 10
13 14 14 15 17 20 22 19 16 16 16 18 19 18 18 19 19 17 16 14 14 12 10 10 11 10 8 9 8 7 5 5 6 7 6 6 6 8 8 10 11 12 12 13 12 13 13 12 13
12 12 12 12 13 15 17 16 14 15 15 16 17 18 17 17 18 16 16 16 15 14 13 12 12 13 14 12 11 10 8 10 10 11 11 11 10 11 11 12 14 16 17 17 16 16 16 16 17
13 15 13 13 13 12 15 14 13 14 15 15 15 15 15 13 14 14 14 14 14 14 15 15 15 14 16 17 16 13 12 12 14 13 14 13 14 14 14 15 15 16 16 16 16 16 16 17 18
11 11 13 13 13 9 11 13 12 14 14 15 14 14 15 12 12 12 12 12 13 14 15 16 16 17 17 18 19 17 15 14 15 15 17 17 17 17 17 17 17 15 15 13 15 17 18 20 20
12 12 11 11 11 13 13 14 14 13 12 14 14 13 15 16 14 13 12 11 12 13 14 16 16 17 19 20 20 20 20 20 20 20 20 20 20 21 22 21 20 20 19 18 18 18 20 22 22
13 13 14 13 13 14 13 14 15 17 15 15 15 13 15 14 15 15 14 13 12 13 14 14 15 16 17 19 21 23 22 22 23 24 26 26 24 25 25 26 27 27 25 26 27 27 27 27 26
17 17 17 16 15 14 16 16 17 17 17 16 17 13 14 14 14 14 15 15 15 15 16 17 17 17 17 17 19 21 24 24 24 26 27 27 26 27 26 28 30 30 33 34 35 35 35 34 31
21 21 20 21 20 19 18 19 17 19 20 18 19 16 15 16 16 15 14 14 14 15 16 18 19 20 20 21 22 23 25 27 27 27 27 28 29 29 30 31 32 33 34 35 37 37 37 37 36
25 25 26 25 25 23 22 21 21 19 22 19 21 18 18 16 18 17 17 16 17 17 18 18 18 20 22 24 25 26 27 28 29 30 29 30 30 30 31 33 35 35 35 35 37 38 39 38 37
31 32 31 30 31 31 29 26 24 23 23 22 22 22 21 22 20 20 18 19 20 19 20 20 20 21 22 24 24 26 28 31 32 33 34 34 34 35 35 36 35 37 38 38 38 40 41 40 41
36 34 37 36 35 34 35 33 33 22 26 26 27 24 24 22 23 23 23 22 21 22 23 22 23 24 23 25 25 25 27 29 30 32 34 36 38 38 38 39 39 40 42 41 42 42 42 42 43
40 39 38 38 38 38 40 37 37 23 32 31 31 30 29 27 27 26 28 27 25 25 25 25 24 27 27 27 28 29 30 31 31 32 34 35 38 39 40 41 42 43 44 44 44 44 44 46 46
43 43 42 35 38 45 43 38 34 35 35 33 35 34 32 31 31 30 32 31 30 29 29 28 29 29 30 29 31 33 33 33 32 34 34 35 37 38 40 42 44 45 46 47 47 46 46 47 48
46 47 42 31 41 46 46 38 33 38 41 36 36 37 36 34 33 33 35 35 34 33 33 32 31 32 32 33 35 36 36 35 35 34 35 34 35 37 39 42 43 44 46 47 47 48 49 49 49
40 44 43 39 38 44 47 43 30 36 42 40 39 39 38 36 36 37 38 38 38 38 38 34 34 36 37 38 38 38 39 38 37 37 38 39 40 40 40 40 41 43 45 47 47 47 49 51 50
41 49 45 41 36 45 52 48 37 37 38 40 38 38 38 39 36 41 40 39 41 41 41 37 37 39 40 41 40 40 40 39 38 39 40 40 40 41 42 44 46 46 46 46 47 48 50 50 50
49 52 52 44 39 52 55 57 49 38 39 38 38 39 38 37 36 40 41 41 40 40 38 39 39 43 44 45 43 40 39 39 40 40 41 41 42 44 45 46 44 44 44 44 46 47 49 51 51
53 53 52 51 43 52 58 63 59 47 39 38 39 36 37 36 36 40 41 40 39 41 40 41 43 46 46 45 43 40 39 38 40 43 44 43 43 43 43 43 44 45 46 47 48 48 49 52 53
54 57 55 57 53 57 62 69 64 53 44 39 37 36 35 33 37 40 41 42 43 42 43 45 47 45 44 43 42 38 38 40 44 44 43 43 43 42 42 43 45 47 49 50 51 52 53 54 56
54 49 56 60 61 66 61 72 66 56 50 45 40 39 36 36 41 42 41 43 46 45 47 43 41 41 43 44 42 41 41 39 36 37 39 41 43 45 46 47 49 50 51 52 53 54 54 56 58
51 48 49 52 57 65 68 70 65 59 53 49 43 41 39 36 39 43 46 45 47 42 39 40 43 46 48 47 44 40 36 33 32 34 35 42 46 48 49 51 53 54 55 55 54 54 55 58 61
48 52 55 58 60 68 67 64 62 63 60 55 53 47 42 40 44 41 39 37 36 35 39 44 48 48 45 42 40 38 35 34 33 33 35 43 48 51 52 53 54 55 56 56 57 57 59 60 62
48 48 55 63 65 68 66 69 66 66 65 63 59 51 49 45 40 42 37 31 31 38 40 41 43 43 42 41 40 42 39 37 37 36 39 44 49 51 52 53 54 55 57 58 60 62 62 63 65
59 59 62 64 65 66 68 72 68 69 67 65 62 56 56 54 41 35 30 36 32 34 33 36 40 41 41 43 43 43 43 43 42 44 46 42 48 50 50 52 54 55 56 58 60 62 64 65 66
62 64 61 68 69 72 67 69 67 67 66 64 63 58 46 20 21 27 32 32 36 37 38 41 42 44 45 44 44 44 46 48 49 51 50 45 48 50 53 54 55 56 58 60 61 63 63 63 64
68 66 67 68 73 73 68 69 65 66 63 64 65 53 35 28 25 32 30 37 42 48 47 43 45 43 45 48 49 49 50 54 55 55 50 50 53 55 56 59 60 60 62 64 65 65 64 63 63
65 67 67 69 71 74 75 67 58 62 62 62 60 55 42 49 40 43 44 43 44 49 51 52 52 46 47 49 51 52 55 56 56 56 54 56 59 60 61 63 66 66 67 70 67 64 63 62 62
55 60 61 74 71 75 78 75 50 59 62 62 64 64 59 52 53 54 48 56 60 55 55 56 54 53 52 53 53 53 52 51 52 52 54 60 64 64 66 68 70 72 72 71 68 64 63 61 62
Wind_Direction
305 303 302 302 300 301 298 307 318 322 314 318 319 323 328 321 322 313 306 305 307 300 296 299 302 299 295 314 102 62 42 25 28 8 350 340 332 330 319 313 306 306 303 288 275 277 279 268 265
304 303 302 301 295 290 292 301 316 307 312 312 311 311 313 309 312 305 299 287 284 286 284 272 266 272 284 281 270 257 251 251 215 285 302 303 294 295 295 297 300 301 303 301 300 302 292 291 292
316 316 317 311 301 297 302 309 318 309 310 312 310 311 310 307 305 301 296 287 277 280 282 288 283 279 279 278 276 270 266 262 258 253 255 262 269 273 274 275 274 276 277 280 285 285 285 287 287
332 332 330 318 312 314 309 318 318 317 319 314 308 311 307 306 303 300 291 286 278 275 279 280 285 289 281 275 271 267 265 264 265 265 270 267 265 268 271 273 273 275 276 276 274 271 277 279 282
350 349 346 333 336 335 315 329 332 330 329 320 323 320 315 309 301 297 293 286 279 273 274 277 279 280 281 274 267 264 260 262 267 269 269 272 275 275 275 274 275 275 276 275 280 284 285 283 280
350 346 348 345 346 336 323 329 333 329 330 322 326 328 315 316 299 288 286 285 279 274 272 270 274 273 273 277 276 271 263 262 267 271 270 271 275 282 280 278 281 278 272 270 273 277 276 273 274
345 339 336 336 342 340 346 335 335 333 333 328 333 339 322 323 312 309 297 288 280 280 279 277 274 270 271 274 276 273 271 271 270 271 273 278 276 274 275 275 273 270 265 265 269 274 277 274 273
326 329 331 331 336 327 331 328 328 328 326 326 325 330 328 334 328 320 311 299 292 287 285 281 279 275 273 273 272 271 271 274 273 272 273 272 274 274 273 272 271 267 265 265 271 275 276 277 275
316 319 322 323 328 327 326 328 327 327 330 335 324 328 318 328 334 331 322 314 307 302 297 291 287 284 278 271 270 270 269 273 276 275 275 274 273 279 277 277 275 275 270 269 274 275 277 277 277
308 312 315 318 319 321 323 322 325 321 322 329 323 326 319 316 316 316 319 318 314 312 305 298 292 283 278 274 270 264 265 268 271 271 271 273 274 276 275 275 277 276 273 273 273 274 275 274 273
298 301 304 309 309 310 311 312 317 315 316 324 322 327 321 317 313 313 310 305 302 303 304 307 301 295 288 279 275 271 270 269 269 269 270 272 274 274 277 277 277 277 277 276 273 272 274 272 269
294 295 294 297 298 301 301 300 301 307 303 307 306 311 312 310 309 311 310 304 302 301 295 294 294 298 294 289 286 282 279 275 273 273 273 274 273 275 277 278 278 277 276 274 275 273 271 269 271
292 291 293 294 293 293 292 293 294 304 293 297 295 297 300 300 301 304 302 301 300 298 302 295 290 289 294 285 285 285 284 281 279 278 276 274 274 275 275 277 278 277 274 274 272 271 273 272 271
290 288 287 290 292 288 287 287 289 292 283 289 288 290 289 291 292 296 295 294 294 296 297 295 291 289 293 285 284 286 286 285 284 281 279 277 275 275 273 275 275 274 271 273 274 274 273 271 271
288 286 287 292 287 284 282 285 291 285 283 283 284 284 284 285 287 289 291 292 292 292 294 292 290 289 290 288 284 285 282 282 283 283 283 281 281 280 278 277 275 273 273 273 271 270 271 272 272
288 287 289 283 279 285 284 288 281 280 277 276 277 280 281 282 283 285 288 290 291 289 289 290 288 286 287 289 290 289 286 280 281 282 282 284 286 285 282 280 279 278 277 274 272 271 270 271 270
295 291 286 285 288 287 286 289 285 279 272 271 272 275 280 281 282 282 285 288 289 288 285 285 285 282 285 290 290 288 285 282 283 283 285 287 290 287 283 283 284 285 281 276 274 273 272 270 269
286 285 288 292 293 285 286 288 284 289 284 273 272 273 273 274 281 280 282 281 280 281 281 283 280 281 286 288 287 285 284 283 286 288 290 292 292 290 287 286 288 287 281 278 276 275 274 273 272
283 284 289 292 290 287 287 286 287 287 290 292 280 277 278 279 276 276 278 280 279 279 277 281 280 282 285 286 284 282 283 285 287 291 294 296 295 293 290 289 288 286 285 284 278 278 276 273 272
280 284 286 287 285 279 281 283 284 284 286 286 288 286 282 281 281 280 282 283 281 279 281 278 279 282 284 281 282 283 285 289 292 294 295 295 294 293 292 290 290 288 287 287 282 280 279 277 275
280 283 286 284 282 278 282 280 282 285 285 282 285 287 285 284 281 281 281 280 280 280 279 281 281 278 277 279 282 284 287 293 294 294 293 295 294 291 292 294 294 293 289 288 286 282 281 278 276
276 281 280 283 282 281 277 280 280 285 283 283 286 285 283 282 283 281 280 278 280 280 281 276 273 272 272 277 280 284 290 292 296 297 294 293 293 292 293 293 293 293 292 291 288 284 282 281 278
280 278 276 274 274 276 275 280 286 285 285 287 283 279 283 282 274 275 278 278 279 278 273 272 276 276 276 280 285 286 287 288 290 291 291 291 293 296 296 296 295 294 292 291 290 287 284 283 279
277 278 279 276 274 269 274 280 281 285 288 287 289 289 285 283 284 278 279 274 271 271 267 268 270 274 278 280 282 283 284 284 285 284 290 295 293 292 292 291 292 292 291 289 288 287 286 284 280
277 276 275 271 271 269 277 277 277 280 287 289 290 293 289 286 284 286 287 267 263 259 258 260 263 266 271 277 280 282 282 285 281 280 288 285 283 285 289 291 290 289 289 288 287 286 285 282 280
273 275 270 276 276 275 271 272 278 283 287 290 294 293 296 298 290 284 264 277 260 242 248 254 259 266 271 275 277 279 281 282 279 283 289 278 279 285 287 287 288 287 285 285 284 283 282 280 280
276 273 278 276 274 274 271 273 275 280 284 290 289 293 299 292 263 244 269 264 259 266 260 261 263 266 274 276 278 282 280 280 280 284 288 277 280 285 286 286 286 285 285 285 283 282 281 281 282
279 276 273 276 276 276 273 273 276 281 287 288 290 291 277 279 257 272 272 273 265 264 266 265 264 269 272 276 280 281 279 279 281 284 285 278 279 284 289 288 287 286 286 286 285 284 284 283 283
280 276 275 272 269 272 272 265 273 278 280 283 285 287 276 285 263 280 281 266 268 261 263 269 272 275 276 279 280 280 280 280 282 284 284 284 283 284 288 290 289 288 288 287 287 286 285 285 284
275 277 280 273 273 271 269 270 267 272 276 281 284 284 282 277 274 281 274 272 274 269 269 270 270 275 279 281 279 280 281 282 284 284 283 286 284 283 285 287 287 286 287 287 286 285 286 287 286
Height
5884 5883 5882 5882 5883 5879 5878 5880 5879 5878 5877 5877 5877 5876 5876 5875 5875 5877 5875 5873 5872 5871 5871 5871 5870 5871 5871 5870 5871 5872 5872 5873 5873 5874 5874 5874 5874 5874 5874 5874 5874 5874 5874 5875 5876 5876 5875 5876 5876
5882 5880 5879 5878 5878 5876 5875 5877 5878 5875 5875 5874 5874 5874 5874 5873 5873 5872 5873 5872 5872 5871 5871 5871 5870 5870 5870 5870 5870 5871 5871 5871 5872 5872 5872 5872 5872 5872 5873 5873 5873 5873 5873 5874 5874 5873 5874 5874 5874
5879 5878 5878 5876 5875 5872 5872 5874 5874 5873 5873 5872 5872 5872 5871 5870 5869 5869 5869 5870 5869 5869 5869 5869 5869 5869 5869 5868 5868 5868 5868 5869 5869 5870 5870 5870 5870 5871 5871 5871 5871 5872 5871 5872 5871 5871 5871 5871 5872
5878 5877 5877 5875 5873 5872 5870 5871 5871 5870 5870 5870 5869 5868 5868 5867 5865 5866 5866 5866 5866 5866 5866 5867 5867 5866 5866 5866 5866 5866 5866 5867 5867 5867 5867 5868 5868 5868 5869 5869 5869 5869 5868 5868 5869 5870 5869 5869 5870
5878 5876 5875 5873 5872 5872 5869 5869 5869 5868 5868 5867 5867 5866 5864 5864 5863 5862 5862 5863 5863 5863 5863 5863 5863 5864 5864 5864 5863 5863 5863 5864 5865 5864 5865 5865 5865 5865 5865 5865 5865 5865 5865 5865 5865 5865 5866 5866 5866
5877 5876 5875 5873 5871 5871 5869 5866 5867 5866 5866 5865 5865 5864 5862 5861 5859 5859 5858 5859 5859 5859 5859 5859 5860 5859 5860 5859 5859 5860 5861 5861 5861 5862 5862 5862 5861 5861 5861 5861 5861 5861 5861 5862 5862 5862 5863 5863 5863
5876 5874 5873 5872 5870 5869 5868 5866 5866 5866 5865 5863 5862 5861 5860 5859 5858 5856 5855 5855 5855 5855 5855 5856 5856 5856 5855 5855 5856 5856 5856 5857 5857 5858 5858 5857 5858 5858 5858 5858 5857 5858 5858 5858 5858 5858 5859 5859 5859
5875 5874 5872 5871 5870 5869 5868 5866 5865 5864 5863 5862 5861 5860 5857 5856 5854 5854 5853 5852 5852 5851 5851 5851 5851 5851 5852 5852 5852 5853 5853 5852 5853 5853 5854 5855 5854 5854 5854 5854 5854 5854 5854 5854 5854 5854 5854 5855 5855
5874 5873 5871 5870 5869 5868 5866 5865 5863 5862 5861 5860 5858 5858 5856 5854 5852 5851 5850 5850 5849 5849 5848 5847 5847 5847 5847 5847 5847 5847 5847 5848 5848 5849 5849 5849 5848 5848 5848 5849 5849 5849 5849 5849 5849 5849 5848 5848 5849
5871 5870 5869 5867 5866 5865 5864 5862 5861 5860 5858 5857 5856 5856 5854 5852 5851 5849 5848 5847 5846 5845 5845 5844 5844 5842 5842 5842 5842 5842 5842 5842 5842 5842 5842 5841 5842 5843 5843 5843 5842 5842 5842 5842 5842 5842 5841 5841 5841
5868 5866 5865 5863 5861 5861 5860 5859 5858 5856 5855 5854 5853 5852 5851 5849 5847 5846 5845 5844 5843 5842 5841 5840 5839 5838 5837 5836 5836 5836 5835 5835 5835 5835 5835 5834 5834 5834 5834 5834 5834 5834 5834 5834 5835 5834 5833 5833 5833
5864 5860 5860 5859 5857 5855 5855 5854 5854 5852 5850 5850 5848 5848 5847 5845 5844 5842 5841 5840 5839 5838 5836 5835 5835 5834 5832 5830 5830 5829 5829 5829 5828 5828 5827 5826 5826 5825 5825 5825 5825 5826 5826 5826 5826 5825 5826 5826 5826
5856 5856 5852 5852 5852 5849 5848 5847 5846 5849 5843 5843 5843 5843 5842 5840 5838 5837 5836 5835 5834 5833 5831 5830 5829 5827 5827 5826 5824 5823 5823 5822 5821 5821 5820 5819 5818 5817 5817 5818 5817 5817 5817 5817 5817 5817 5817 5817 5816
5848 5848 5847 5846 5844 5841 5839 5840 5839 5843 5836 5836 5834 5834 5834 5834 5832 5831 5829 5829 5828 5827 5826 5824 5822 5821 5820 5818 5817 5816 5815 5814 5813 5813 5812 5811 5810 5810 5810 5809 5808 5808 5808 5808 5807 5807 5807 5807 5807
5838 5836 5837 5841 5835 5829 5830 5834 5834 5831 5829 5829 5826 5826 5825 5825 5824 5823 5821 5821 5820 5820 5819 5817 5815 5813 5812 5811 5810 5809 5808 5807 5806 5804 5804 5803 5802 5802 5801 5800 5799 5799 5798 5797 5798 5797 5796 5796 5795
5828 5826 5828 5835 5825 5820 5819 5825 5828 5822 5818 5821 5819 5818 5817 5817 5816 5815 5812 5812 5811 5812 5811 5809 5807 5805 5803 5803 5801 5800 5798 5798 5797 5797 5796 5795 5794 5793 5792 5790 5789 5788 5788 5787 5786 5786 5784 5784 5784
5822 5814 5815 5820 5818 5811 5808 5810 5820 5815 5809 5810 5810 5810 5809 5808 5807 5806 5805 5803 5802 5801 5801 5800 5799 5796 5794 5793 5792 5790 5788 5788 5788 5787 5787 5785 5785 5784 5782 5781 5779 5778 5777 5776 5775 5774 5773 5772 5772
5810 5801 5806 5808 5813 5803 5795 5797 5806 5805 5800 5800 5802 5802 5800 5799 5800 5794 5794 5793 5792 5790 5790 5790 5787 5785 5783 5782 5781 5779 5778 5777 5777 5777 5776 5775 5773 5771 5770 5768 5767 5765 5764 5763 5762 5761 5760 5760 5759
5799 5795 5793 5800 5802 5787 5783 5780 5788 5797 5792 5790 5791 5790 5789 5788 5789 5785 5783 5783 5781 5779 5779 5778 5776 5774 5772 5771 5769 5769 5768 5767 5767 5766 5765 5763 5761 5759 5757 5756 5755 5753 5752 5751 5749 5747 5746 5745 5745
5788 5787 5785 5785 5792 5780 5773 5765 5769 5782 5786 5783 5781 5783 5781 5779 5777 5775 5772 5771 5771 5768 5768 5766 5765 5762 5761 5759 5757 5758 5758 5758 5756 5754 5753 5751 5750 5747 5745 5743 5742 5741 5739 5737 5736 5735 5733 5731 5731
5782 5777 5777 5771 5771 5768 5762 5748 5755 5766 5771 5775 5775 5773 5772 5770 5767 5764 5763 5761 5758 5758 5756 5754 5752 5750 5748 5747 5748 5748 5748 5748 5746 5743 5742 5739 5737 5735 5733 5731 5730 5728 5726 5724 5722 5720 5718 5715 5714
5765 5774 5767 5762 5759 5748 5750 5726 5740 5754 5758 5761 5765 5763 5763 5761 5757 5754 5752 5749 5746 5745 5743 5741 5739 5738 5737 5737 5737 5739 5739 5738 5736 5733 5730 5727 5725 5723 5721 5720 5717 5715 5712 5710 5708 5706 5704 5702 5700
5756 5755 5753 5751 5747 5741 5733 5726 5723 5734 5742 5748 5750 5750 5751 5749 5747 5743 5740 5738 5735 5733 5732 5731 5728 5727 5726 5727 5728 5729 5729 5727 5724 5722 5719 5716 5713 5712 5710 5707 5704 5702 5699 5696 5694 5692 5691 5689 5685
5745 5743 5739 5735 5731 5722 5725 5729 5708 5719 5722 5728 5731 5735 5736 5736 5730 5731 5729 5725 5724 5722 5720 5718 5717 5715 5715 5715 5716 5717 5717 5716 5714 5712 5710 5706 5702 5699 5697 5695 5692 5689 5686 5683 5681 5678 5675 5672 5668
5731 5729 5721 5715 5712 5710 5715 5710 5702 5706 5709 5710 5712 5719 5718 5718 5719 5714 5709 5710 5711 5710 5708 5707 5705 5704 5704 5705 5705 5704 5704 5704 5702 5701 5700 5696 5692 5687 5684 5681 5679 5676 5673 5669 5666 5663 5659 5655 5651
5717 5715 5707 5698 5701 5701 5700 5691 5693 5697 5697 5698 5697 5699 5700 5702 5702 5702 5700 5699 5695 5694 5695 5696 5695 5695 5695 5695 5693 5692 5692 5691 5689 5687 5685 5684 5679 5675 5672 5669 5665 5661 5658 5655 5650 5646 5641 5637 5633
5702 5695 5701 5685 5684 5681 5690 5685 5685 5686 5687 5686 5684 5686 5687 5686 5688 5689 5689 5688 5686 5681 5682 5682 5682 5682 5683 5682 5681 5681 5680 5677 5675 5672 5669 5666 5662 5658 5656 5654 5651 5647 5643 5638 5634 5628 5624 5619 5616
5681 5683 5680 5675 5664 5661 5671 5670 5673 5675 5675 5675 5671 5674 5675 5676 5678 5678 5676 5676 5673 5668 5666 5670 5670 5672 5670 5670 5668 5666 5665 5662 5660 5657 5654 5649 5645 5641 5639 5636 5633 5630 5626 5622 5616 5611 5607 5602 5598
5667 5662 5662 5659 5654 5644 5644 5654 5667 5662 5661 5658 5659 5661 5662 5662 5663 5663 5662 5659 5656 5654 5653 5653 5654 5656 5655 5654 5652 5650 5648 5646 5644 5641 5637 5633 5629 5626 5622 5618 5615 5611 5606 5602 5598 5593 5588 5585 5580
5647 5642 5642 5634 5638 5631 5624 5630 5660 5652 5648 5648 5644 5643 5646 5645 5643 5642 5642 5638 5636 5637 5638 5638 5638 5639 5638 5636 5636 5633 5632 5628 5626 5624 5621 5618 5614 5611 5607 5602 5597 5592 5586 5583 5578 5574 5570 5566 5562